Regional Weather Roundup
Issued by NWS

Home | Current Version | Previous Version | Text Only | Print | Product List | Glossary Off
Versions: 1 2 3 4 5 6 7 8 9 10 11 12 13 14 15 16 17 18 19 20 21 22 23 24 25 26 27 28 29 30 31 32 33 34 35 36 37 38 39 40 41 42 43 44 45 46 47 48 49 50

612
ASUS44 KLIX 300010
RWRLA
LOUISIANA WEATHER ROUNDUP
NATIONAL WEATHER SERVICE NEW ORLEANS LA
700 PM CDT MON SEP 29 2014

NOTE: "FAIR" INDICATES FEW OR NO CLOUDS BELOW 12,000 FEET WITH NO
      SIGNIFICANT WEATHER AND/OR OBSTRUCTIONS TO VISIBILITY.
      SKY/WX - SKY CONDITION AND SIGNIFICANT WEATHER.
      TMP - AIR TEMPERATURE.    DP   - DEWPOINT TEMPERATURE.
      RH  - RELATIVE HUMIDITY.  PRES - PRESSURE.
      HX  - HEAT INDEX.         WCI  - WIND CHILL INDEX.

*  THESE STATIONS ARE NOT NWS OR FAA STATIONS AND ARE NOT UNDER
   NWS QUALITY CONTROL.

LAZ040-048-061>063-065-066-069-300100-
SOUTHEAST LOUISIANA

CITY           SKY/WX    TMP DP  RH WIND       PRES   REMARKS
N.O. AUDUBON     N/A     79  72  81 MISG        N/A
6HR MIN TEMP:  78; 6HR MAX TEMP:  86;

N.O. INTL ARPT PTCLDY    80  69  69 CALM      29.86S
6HR MIN TEMP:  78; 6HR MAX TEMP:  84;

N.O. LAKEFRONT CLEAR     79  73  82 NW5       29.87R
6HR MIN TEMP:  79; 6HR MAX TEMP:  82;

N.O. DOWNTOWN* FAIR      81  68  65 N3        29.87R
6HR MIN TEMP:  79; 6HR MAX TEMP:  88;

SLIDELL        CLEAR     79  73  82 CALM      29.86R
6HR MIN TEMP:  79; 6HR MAX TEMP:  86;

BATON ROUGE    PTCLDY    80  70  71 NE3       29.87R
6HR MIN TEMP:  80; 6HR MAX TEMP:  88;

BOOTHVILLE     CLEAR     79  72  79 CALM      29.87R HAZE
6HR MIN TEMP:  79; 6HR MAX TEMP:  82;

BELLE CHASSE   CLEAR     78  71  79 NE3       29.86R
6HR MIN TEMP:  78; 6HR MAX TEMP:  86;

BOGALUSA*        N/A     79  72  79 CALM      29.88R
6HR MIN TEMP:  79; 6HR MAX TEMP:  87;

GALLIANO*      NOT AVBL
NEW ROADS*     CLOUDY    79  74  83 CALM      29.87S
6HR MIN TEMP:  79; 6HR MAX TEMP:  86;

GONZALES*      FAIR      78  77  99 CALM      29.86S
6HR MIN TEMP:  78; 6HR MAX TEMP:  86;

HAMMOND*       CLEAR     79  72  78 CALM      29.88S
HOUMA*         PTCLDY   N/A N/A N/A N3        29.86S
PORT FOURCHON* CLEAR     81  73  78 E6        29.90R

$$

LAZ041-044-053-054-300100-
SOUTHWEST LOUISIANA

CITY           SKY/WX    TMP DP  RH WIND       PRES   REMARKS
LAKE CHARLES   LGT RAIN  81  72  74 NE8       29.86R
6HR MIN TEMP:  81; 6HR MAX TEMP:  88; 6HR PCP: TRACE;

LAFAYETTE      CLOUDY    82  74  76 NE5       29.86S
6HR MIN TEMP:  80; 6HR MAX TEMP:  87; 6HR PCP: TRACE;

PATTERSON      MOCLDY    75  72  88 N5        29.90R
6HR MIN TEMP:  75; 6HR MAX TEMP:  90;

SALT POINT       N/A     79  75  87 CALM      29.86F
6HR MIN TEMP:  77; 6HR MAX TEMP:  86; 6HR PCP:  0.02;

NEW IBERIA     MOCLDY    83  73  72 NE5       29.87R
6HR MIN TEMP:  80; 6HR MAX TEMP:  88; 6HR PCP: TRACE;

CHENAULT AIRPK PTCLDY    79  73  83 N5        29.87

$$

LAZ027-028-300100-
CENTRAL LOUISIANA

CITY           SKY/WX    TMP DP  RH WIND       PRES   REMARKS
FORT POLK      PTCLDY    78  73  84 NE3       29.89R
6HR MIN TEMP:  77; 6HR MAX TEMP:  85; 6HR PCP: TRACE;

ALEXANDRIA INT CLOUDY    79  71  76 NE6       29.87S
6HR MIN TEMP:  79; 6HR MAX TEMP:  88;

ALEXANDRIA     CLOUDY    79  72  79 CALM      29.89R
6HR MIN TEMP:  79; 6HR MAX TEMP:  88;


$$

LAZ001-002-300100-
NORTHWEST LOUISIANA

CITY           SKY/WX    TMP DP  RH WIND       PRES   REMARKS
SHREVEPORT     MOCLDY    82  66  58 E3        29.89S
6HR MIN TEMP:  82; 6HR MAX TEMP:  88;

BARKSDALE AFB  CLOUDY    82  65  55 NE2       29.90S
6HR MIN TEMP:  82; 6HR MAX TEMP:  89;

DTN SHREVEPORT CLOUDY    83  65  54 E3        29.89F
6HR MIN TEMP:  83; 6HR MAX TEMP:  87;


$$

LAZ014-016-300100-
NORTHEAST LOUISIANA

CITY           SKY/WX    TMP DP  RH WIND       PRES   REMARKS
MONROE         MOCLDY    78  69  73 CALM      29.90S
6HR MIN TEMP:  78; 6HR MAX TEMP:  90;

TALLULAH       CLEAR     78  67  68 NE3       29.88S
6HR MIN TEMP:  78; 6HR MAX TEMP:  90;


$$




USA.gov is the U.S. government's official web portal to all federal, state and local government web resources and services.